SCP
0 0 0 0 0 0 0 0 0 0 -0 0 0 0 0 0 0 0 0 0 0 0 0 0 0 0 0 0 0 0 0 0 0 0 0 0 0 0 0 0 0 0 0 0
0 0 0 0 0 0 0 0 0 0 0 0 0 0 0 0 0 0 0 0 0 0 0 0 0 0 0 0 0 0 0 0 0 0 0 0 0 0 0 0 0 0 0 0
0 0 0 0 0 0 0 0 0 0 0 0 0 0 0 0 0 0 0 0 0 0 0 0 0 0 0 0 0 0 0 0 0 0 0 0 0 0 0 0 0 0 0 0
0 0 0 0 0 0 0 0 0 0 0 0 0 0 0 0 0 0 0 0 0 0 0 0 0 0 1 0 0 0 0 0 0 0 0 0 0 0 0 0 0 0 0 0
0 0 0 0 0 0 0 0 0 0 0 0 0 0 0 0 0 0 0 0 0 0 0 0 0 0 1 1 0 0 0 0 0 0 0 0 0 0 0 0 0 0 0 0
0 0 0 0 0 0 0 0 0 0 0 0 0 0 0 0 0 0 0 0 0 0 0 0 0 0 0 1 0 0 0 0 0 0 0 0 0 0 0 0 0 0 0 0
0 0 0 0 0 0 0 0 0 0 0 0 0 0 0 0 0 0 0 0 -0 -0 0 0 0 0 0 1 0 0 0 0 0 0 0 0 0 0 0 0 0 0 0 0
0 0 0 0 0 0 0 0 0 0 0 0 0 0 0 0 0 0 0 0 -0 -0 0 0 0 0 0 0 0 0 0 0 0 0 0 0 0 0 0 0 0 0 0 0
0 0 0 0 0 0 0 0 0 0 0 0 0 0 0 0 -0 -0 0 0 -0 0 0 0 0 0 0 0 1 0 1 0 0 0 0 0 0 0 0 0 0 0 0 0
0 0 0 0 0 0 0 0 0 0 0 0 0 0 0 0 -0 0 0 -0 -0 -0 0 0 0 0 0 0 0 1 1 0 0 0 0 0 0 0 0 0 0 0 0 0
0 0 0 0 0 0 0 0 0 0 0 0 0 0 0 0 0 -0 -0 0 0 0 0 0 0 0 0 0 0 0 0 0 0 0 0 0 0 0 0 0 0 0 0 0
0 0 0 0 0 0 0 0 0 0 0 0 0 0 -0 -0 -0 -0 -0 0 0 0 0 0 0 0 0 0 0 0 0 0 0 0 0 0 0 0 0 0 0 0 0 0
0 0 0 0 0 0 0 0 0 0 0 0 -0 0 0 0 -0 -0 0 -0 -0 0 0 0 0 0 0 0 0 0 0 0 0 0 0 0 0 0 0 0 0 0 0 0
0 0 0 0 0 0 0 0 0 0 0 -0 -0 -0 -0 -0 -0 -0 0 0 0 0 0 0 0 0 0 0 0 0 0 0 0 0 0 0 0 0 0 0 0 0 0 0
0 0 0 0 0 0 0 0 0 0 0 -0 -0 -0 -0 0 -0 0 0 0 -0 0 0 0 0 0 0 0 0 0 0 0 0 0 0 0 0 0 0 0 0 0 0 0
0 0 0 0 0 0 0 -0 -0 0 0 -0 -0 -0 -0 -0 -0 -0 0 0 0 -0 0 0 0 0 0 0 0 0 0 0 0 0 0 0 0 0 0 0 0 0 0 0
0 0 0 0 0 0 0 0 0 0 0 0 -0 -0 -0 0 0 0 0 0 0 0 0 0 0 0 0 0 0 0 0 0 0 0 0 0 0 0 0 0 0 0 0 0
0 0 0 0 0 0 -0 0 0 -0 0 0 -0 -0 -0 0 0 0 0 0 0 0 0 0 0 0 0 0 0 0 0 0 0 0 0 0 0 0 0 0 0 0 0 0
0 0 0 0 0 0 0 0 0 0 0 -0 -0 -0 -0 0 0 0 0 0 0 0 0 0 0 0 0 0 0 0 0 0 0 0 0 0 0 0 0 0 0 0 0 0
0 0 0 0 0 0 0 0 0 -0 0 0 -0 -0 -0 0 0 0 0 0 0 0 0 0 0 0 0 0 0 0 0 0 0 0 0 0 0 0 0 0 0 0 0 0
0 0 0 0 0 0 0 0 0 0 0 -0 -0 0 0 0 0 0 0 0 0 0 0 0 0 0 0 0 0 0 0 0 0 0 0 0 0 0 0 0 0 0 0 0
0 0 0 0 -0 0 0 0 0 0 0 0 0 0 0 0 0 0 0 0 0 0 0 0 0 0 0 0 0 0 0 0 0 0 0 0 0 0 0 0 0 0 0 0
0 0 0 0 0 0 0 0 0 0 0 0 0 0 0 0 0 0 0 0 0 0 0 0 0 -0 -0 -0 -0 -0 0 0 0 0 0 0 0 0 0 0 0 0 0 0
0 0 0 0 0 0 0 0 0 0 0 0 0 0 0 0 0 0 0 0 0 0 0 0 0 0 -0 -0 -0 0 0 0 0 0 0 0 0 0 0 0 0 0 0 0
0 0 0 0 0 0 0 0 -0 0 0 0 0 0 0 0 0 0 0 0 0 0 0 0 0 -0 0 -0 0 0 0 0 0 0 0 0 -0 0 0 0 0 0 0 0
0 0 0 0 0 -0 -0 0 0 0 0 0 0 0 0 0 0 0 0 0 0 0 0 0 0 -0 -0 0 0 0 0 0 -0 0 0 0 0 0 0 0 0 0 0 0
0 0 -0 0 0 0 -0 0 0 0 0 0 0 0 0 0 0 0 0 0 0 0 -0 0 0 0 0 0 0 0 -0 -0 0 0 0 0 0 0 0 0 0 0 0 0
Wind_Speed_500mb
41 35 30 28 22 19 16 4 2 21 30 16 12 30 20 25 35 54 27 10 11 26 33 10 19 23 20 16 11 14 19 9 12 34 16 15 14 21 22 21 15 6 6 13
43 38 33 30 26 28 20 7 10 28 20 7 7 10 33 55 38 50 20 36 20 8 11 16 15 13 14 26 18 15 13 9 5 11 7 4 12 10 11 7 5 33 17 12
44 40 36 33 32 31 29 10 3 22 42 37 22 16 24 34 69 60 73 42 58 19 38 15 13 10 12 20 22 19 20 11 17 26 17 10 9 11 8 15 10 11 13 11
42 41 38 37 34 32 33 21 12 17 8 19 34 28 17 31 30 71 67 53 62 48 35 43 27 29 8 9 8 12 11 14 12 12 14 12 15 12 17 15 12 15 13 19
43 42 42 41 40 34 43 20 17 15 23 28 18 23 31 45 53 37 61 55 68 66 58 56 50 8 10 13 3 8 4 13 12 9 13 14 10 17 15 13 7 9 6 8
43 43 44 44 41 40 39 38 46 30 17 19 19 31 39 44 47 68 91 75 55 77 72 100 65 44 33 20 19 17 12 10 6 21 8 7 15 23 22 12 12 13 12 14
44 43 44 49 45 44 57 39 28 15 18 20 34 44 52 46 53 53 77 85 78 132 102 87 89 74 59 32 25 21 18 14 9 26 6 31 18 19 31 31 20 20 11 12
45 44 44 48 47 42 51 57 53 25 16 42 37 38 38 57 75 55 87 96 125 96 98 40 55 49 61 59 42 36 18 19 11 9 25 10 9 11 16 19 35 16 22 25
43 44 46 46 47 44 50 58 55 41 21 36 58 44 51 34 36 47 82 109 85 68 42 40 18 28 35 26 24 36 20 9 23 7 13 24 15 15 26 10 28 21 29 17
43 45 45 47 48 47 49 63 53 56 32 61 54 23 27 35 35 26 50 33 53 93 32 37 38 24 15 37 44 19 28 13 34 20 14 14 12 10 33 24 14 28 50 48
43 45 45 47 46 47 53 64 64 61 57 73 63 69 55 58 43 26 49 37 36 21 27 11 8 10 22 24 27 41 31 25 18 12 8 32 20 13 22 13 14 37 48 60
42 44 46 46 45 45 45 65 59 63 79 57 45 58 82 96 87 69 52 57 33 51 14 18 7 7 9 9 9 7 26 22 18 29 19 9 42 25 30 37 40 37 60 63
42 42 44 47 45 44 47 62 55 52 62 61 73 82 112 94 103 99 69 78 92 56 64 13 8 9 9 13 14 8 15 10 12 10 11 14 35 22 40 42 46 50 65 70
42 44 46 47 44 44 43 58 56 56 28 12 47 61 64 58 65 81 102 112 58 107 55 14 7 12 15 10 15 25 15 13 15 3 1 16 30 46 54 57 65 67 65 67
41 43 47 46 43 41 46 61 65 61 47 10 32 74 109 77 74 81 88 81 82 46 26 10 9 7 7 4 3 9 12 19 18 10 32 18 31 53 64 68 73 74 73 60
40 43 43 42 40 35 42 26 45 61 60 20 8 25 48 62 60 56 26 76 67 72 12 6 19 15 6 8 8 8 30 38 57 11 58 52 55 62 67 74 78 71 66 65
40 41 40 39 38 39 44 19 4 10 31 11 8 10 14 39 37 55 42 30 4 15 23 7 6 11 10 5 7 3 38 44 53 42 57 31 62 71 72 75 69 66 59 52
35 35 35 35 36 40 59 62 58 52 30 16 8 10 10 15 14 5 11 11 8 7 7 6 7 9 6 5 11 10 17 49 55 53 63 72 67 76 73 72 69 63 58 52
29 27 26 27 34 30 41 43 41 37 36 8 7 5 7 11 6 8 7 7 2 3 2 5 8 5 9 12 15 19 14 28 53 62 66 75 79 82 81 76 68 63 58 51
22 23 14 13 17 33 35 16 13 22 19 19 8 9 10 7 3 3 4 6 2 1 5 4 4 4 11 22 37 60 43 12 59 53 42 66 76 87 83 77 66 60 61 51
26 18 15 15 12 12 13 13 13 15 7 16 14 29 5 12 3 4 2 4 4 3 3 4 2 6 11 26 27 56 60 53 41 51 54 76 79 82 81 76 63 57 49 41
20 11 13 10 8 12 11 8 6 8 10 11 7 13 21 3 7 6 2 3 1 2 3 4 4 8 38 48 54 66 63 67 65 68 73 85 87 82 72 63 59 53 45 38
23 12 7 10 14 10 10 8 7 6 6 14 17 6 15 9 7 5 3 4 4 3 5 6 8 10 24 46 50 54 54 55 53 63 69 66 70 64 56 60 57 48 43 38
19 15 11 10 9 10 9 6 5 10 16 17 28 5 5 11 5 4 7 2 5 4 7 11 6 25 41 49 58 64 54 54 61 63 62 62 65 67 61 57 52 49 42 35
11 12 10 13 14 12 9 28 28 37 40 29 10 6 8 4 7 3 6 5 10 10 9 7 21 40 35 46 50 56 55 61 66 65 65 66 68 63 54 46 44 38 32 23
12 11 8 17 6 6 8 28 38 36 34 16 5 4 4 4 11 8 12 10 10 6 8 18 16 37 37 45 54 55 63 67 67 63 66 72 69 62 55 50 39 29 21 15
12 11 21 19 14 15 17 20 20 33 19 5 5 6 7 5 6 7 8 8 6 7 8 16 4 30 38 40 44 53 59 62 65 66 70 67 60 54 51 44 32 21 13 9
Wind_Direction_500mb
248 247 249 249 246 236 240 233 69 138 154 165 206 221 207 254 260 234 239 268 234 246 260 269 238 232 214 202 186 179 206 186 230 239 230 204 185 224 215 226 247 248 197 249
244 242 241 237 223 219 216 198 171 164 195 208 243 311 241 249 268 251 233 234 237 225 240 232 228 238 234 220 180 196 179 235 257 315 330 225 230 202 216 168 134 225 231 261
239 237 233 227 217 216 210 184 206 204 219 226 223 233 247 250 248 263 251 257 235 257 238 230 269 245 240 219 207 209 168 200 186 235 214 175 202 214 211 207 199 222 219 194
234 231 225 218 214 209 202 203 224 213 199 214 218 228 260 243 244 241 250 248 250 229 238 228 229 236 280 228 213 167 156 235 201 229 221 189 206 188 199 197 215 191 225 200
233 229 224 218 214 204 211 214 214 214 233 253 255 240 243 254 259 262 256 245 239 240 239 231 235 213 205 222 181 194 240 245 185 266 211 208 231 211 206 216 219 261 199 222
230 228 223 220 212 209 215 228 238 248 243 218 236 238 248 252 254 259 242 255 263 236 237 234 239 270 255 227 201 203 184 190 188 245 200 193 258 212 202 210 199 168 197 214
228 227 225 219 217 222 219 223 219 223 254 235 240 253 250 255 256 261 261 256 243 250 246 245 248 258 262 259 254 235 216 195 190 245 165 229 246 186 198 213 201 198 181 203
226 226 225 223 225 228 228 233 237 231 253 251 255 245 254 262 261 268 260 252 242 238 241 240 232 234 238 243 236 235 214 216 221 192 228 281 244 205 168 182 236 202 185 190
226 227 228 228 228 230 232 234 238 239 249 247 246 254 257 262 272 272 265 259 244 235 233 236 221 206 203 209 211 206 194 221 214 152 232 223 204 207 206 112 252 207 190 177
225 228 230 231 232 232 235 242 243 240 241 257 244 239 256 253 256 271 277 243 227 217 238 222 232 230 194 216 214 185 195 198 216 215 229 270 240 184 151 178 235 181 198 188
227 230 233 234 235 236 236 250 243 249 253 258 248 248 245 256 245 255 269 250 225 221 227 202 197 201 203 214 228 192 185 184 201 183 226 246 188 112 191 188 159 178 184 178
231 233 236 240 240 243 242 254 257 259 253 251 250 255 256 252 251 251 251 265 233 214 219 198 228 199 146 169 193 209 203 190 173 189 204 208 177 200 203 177 172 178 182 178
238 239 240 242 246 248 247 254 273 270 245 257 256 255 270 272 264 252 245 262 241 245 219 192 205 213 138 182 214 111 228 158 159 131 213 173 188 187 192 188 180 171 169 163
242 244 244 246 247 249 255 254 269 261 257 253 270 267 263 280 280 249 254 241 248 223 227 189 188 219 171 186 185 205 212 144 145 153 151 125 181 186 178 168 157 156 156 159
244 246 248 250 252 252 253 267 261 256 248 282 279 287 281 285 270 253 257 234 233 232 205 200 183 215 133 138 263 196 191 170 180 204 181 157 183 181 171 164 161 159 157 158
245 246 249 251 252 259 263 283 276 253 242 263 279 276 281 291 259 244 257 210 222 231 309 183 150 181 155 149 200 258 188 189 190 171 179 184 177 176 172 165 161 161 162 159
246 248 250 250 246 246 240 247 277 136 224 266 276 270 288 257 240 228 249 248 210 340 216 210 159 151 132 121 190 261 200 191 190 196 177 159 171 172 174 164 161 158 157 159
247 250 247 243 247 253 263 264 251 268 272 248 265 266 304 228 170 211 156 139 136 235 288 198 153 137 117 203 233 310 213 187 184 180 185 183 173 172 166 161 158 153 152 153
248 243 238 244 235 242 260 276 264 259 219 231 258 263 275 200 101 134 101 133 115 302 196 279 124 139 203 168 204 217 199 172 176 169 171 164 159 161 160 160 161 159 156 161
236 219 215 230 215 240 257 259 235 212 218 226 244 238 275 263 60 63 81 62 65 126 246 315 43 248 235 197 200 209 188 130 164 135 130 152 156 160 162 167 170 172 166 162
205 206 223 242 250 269 225 235 210 198 228 217 234 209 216 253 133 136 124 129 155 195 251 134 193 265 216 200 209 200 183 165 177 182 174 179 173 168 170 169 168 165 166 171
193 211 224 249 212 237 250 210 219 221 233 201 220 199 204 185 90 95 4 97 10 196 79 51 272 247 189 183 189 183 191 191 199 203 202 193 180 171 168 169 169 169 168 166
201 216 220 204 203 241 241 223 207 236 216 224 184 175 177 97 86 67 104 96 199 154 108 224 240 296 227 194 185 185 182 179 170 168 169 168 170 172 177 173 168 168 165 158
192 186 217 215 216 230 213 241 265 287 257 269 176 217 166 142 114 150 107 152 179 189 190 217 228 210 199 213 203 189 179 176 176 178 177 175 178 176 171 169 165 164 155 147
186 192 224 217 244 275 292 286 288 279 287 266 144 183 125 95 113 181 129 178 223 213 219 224 201 194 191 192 190 185 174 168 166 166 165 168 165 161 156 158 158 158 151 142
207 231 245 242 264 279 266 286 283 284 280 132 184 148 131 186 133 152 208 179 224 224 206 227 177 180 182 189 182 172 167 164 160 160 162 163 164 162 160 155 153 147 144 143
203 228 233 253 267 262 270 289 302 305 291 175 209 134 177 102 135 201 203 212 216 227 216 214 177 179 175 175 176 184 177 169 166 165 163 160 158 158 157 153 149 145 142 128
Wind_Speed_850mb
41 35 30 28 22 19 16 4 2 21 30 16 12 30 20 25 35 54 27 10 11 26 33 10 19 23 20 16 11 14 19 9 12 34 16 15 14 21 22 21 15 6 6 13
43 38 33 30 26 28 20 7 10 28 20 7 7 10 33 55 38 50 20 36 20 8 11 16 15 13 14 26 18 15 13 9 5 11 7 4 12 10 11 7 5 33 17 12
44 40 36 33 32 31 29 10 3 22 42 37 22 16 24 34 69 60 73 42 58 19 38 15 13 10 12 20 22 19 20 11 17 26 17 10 9 11 8 15 10 11 13 11
42 41 38 37 34 32 33 21 12 17 8 19 34 28 17 31 30 71 67 53 62 48 35 43 27 29 8 9 8 12 11 14 12 12 14 12 15 12 17 15 12 15 13 19
43 42 42 41 40 34 43 20 17 15 23 28 18 23 31 45 53 37 61 55 68 66 58 56 50 8 10 13 3 8 4 13 12 9 13 14 10 17 15 13 7 9 6 8
43 43 44 44 41 40 39 38 46 30 17 19 19 31 39 44 47 68 91 75 55 77 72 100 65 44 33 20 19 17 12 10 6 21 8 7 15 23 22 12 12 13 12 14
44 43 44 49 45 44 57 39 28 15 18 20 34 44 52 46 53 53 77 85 78 132 102 87 89 74 59 32 25 21 18 14 9 26 6 31 18 19 31 31 20 20 11 12
45 44 44 48 47 42 51 57 53 25 16 42 37 38 38 57 75 55 87 96 125 96 98 40 55 49 61 59 42 36 18 19 11 9 25 10 9 11 16 19 35 16 22 25
43 44 46 46 47 44 50 58 55 41 21 36 58 44 51 34 36 47 82 109 85 68 42 40 18 28 35 26 24 36 20 9 23 7 13 24 15 15 26 10 28 21 29 17
43 45 45 47 48 47 49 63 53 56 32 61 54 23 27 35 35 26 50 33 53 93 32 37 38 24 15 37 44 19 28 13 34 20 14 14 12 10 33 24 14 28 50 48
43 45 45 47 46 47 53 64 64 61 57 73 63 69 55 58 43 26 49 37 36 21 27 11 8 10 22 24 27 41 31 25 18 12 8 32 20 13 22 13 14 37 48 60
42 44 46 46 45 45 45 65 59 63 79 57 45 58 82 96 87 69 52 57 33 51 14 18 7 7 9 9 9 7 26 22 18 29 19 9 42 25 30 37 40 37 60 63
42 42 44 47 45 44 47 62 55 52 62 61 73 82 112 94 103 99 69 78 92 56 64 13 8 9 9 13 14 8 15 10 12 10 11 14 35 22 40 42 46 50 65 70
42 44 46 47 44 44 43 58 56 56 28 12 47 61 64 58 65 81 102 112 58 107 55 14 7 12 15 10 15 25 15 13 15 3 1 16 30 46 54 57 65 67 65 67
41 43 47 46 43 41 46 61 65 61 47 10 32 74 109 77 74 81 88 81 82 46 26 10 9 7 7 4 3 9 12 19 18 10 32 18 31 53 64 68 73 74 73 60
40 43 43 42 40 35 42 26 45 61 60 20 8 25 48 62 60 56 26 76 67 72 12 6 19 15 6 8 8 8 30 38 57 11 58 52 55 62 67 74 78 71 66 65
40 41 40 39 38 39 44 19 4 10 31 11 8 10 14 39 37 55 42 30 4 15 23 7 6 11 10 5 7 3 38 44 53 42 57 31 62 71 72 75 69 66 59 52
35 35 35 35 36 40 59 62 58 52 30 16 8 10 10 15 14 5 11 11 8 7 7 6 7 9 6 5 11 10 17 49 55 53 63 72 67 76 73 72 69 63 58 52
29 27 26 27 34 30 41 43 41 37 36 8 7 5 7 11 6 8 7 7 2 3 2 5 8 5 9 12 15 19 14 28 53 62 66 75 79 82 81 76 68 63 58 51
22 23 14 13 17 33 35 16 13 22 19 19 8 9 10 7 3 3 4 6 2 1 5 4 4 4 11 22 37 60 43 12 59 53 42 66 76 87 83 77 66 60 61 51
26 18 15 15 12 12 13 13 13 15 7 16 14 29 5 12 3 4 2 4 4 3 3 4 2 6 11 26 27 56 60 53 41 51 54 76 79 82 81 76 63 57 49 41
20 11 13 10 8 12 11 8 6 8 10 11 7 13 21 3 7 6 2 3 1 2 3 4 4 8 38 48 54 66 63 67 65 68 73 85 87 82 72 63 59 53 45 38
23 12 7 10 14 10 10 8 7 6 6 14 17 6 15 9 7 5 3 4 4 3 5 6 8 10 24 46 50 54 54 55 53 63 69 66 70 64 56 60 57 48 43 38
19 15 11 10 9 10 9 6 5 10 16 17 28 5 5 11 5 4 7 2 5 4 7 11 6 25 41 49 58 64 54 54 61 63 62 62 65 67 61 57 52 49 42 35
11 12 10 13 14 12 9 28 28 37 40 29 10 6 8 4 7 3 6 5 10 10 9 7 21 40 35 46 50 56 55 61 66 65 65 66 68 63 54 46 44 38 32 23
12 11 8 17 6 6 8 28 38 36 34 16 5 4 4 4 11 8 12 10 10 6 8 18 16 37 37 45 54 55 63 67 67 63 66 72 69 62 55 50 39 29 21 15
12 11 21 19 14 15 17 20 20 33 19 5 5 6 7 5 6 7 8 8 6 7 8 16 4 30 38 40 44 53 59 62 65 66 70 67 60 54 51 44 32 21 13 9
Wind_Direction_850mb
248 247 249 249 246 236 240 233 69 138 154 165 206 221 207 254 260 234 239 268 234 246 260 269 238 232 214 202 186 179 206 186 230 239 230 204 185 224 215 226 247 248 197 249
244 242 241 237 223 219 216 198 171 164 195 208 243 311 241 249 268 251 233 234 237 225 240 232 228 238 234 220 180 196 179 235 257 315 330 225 230 202 216 168 134 225 231 261
239 237 233 227 217 216 210 184 206 204 219 226 223 233 247 250 248 263 251 257 235 257 238 230 269 245 240 219 207 209 168 200 186 235 214 175 202 214 211 207 199 222 219 194
234 231 225 218 214 209 202 203 224 213 199 214 218 228 260 243 244 241 250 248 250 229 238 228 229 236 280 228 213 167 156 235 201 229 221 189 206 188 199 197 215 191 225 200
233 229 224 218 214 204 211 214 214 214 233 253 255 240 243 254 259 262 256 245 239 240 239 231 235 213 205 222 181 194 240 245 185 266 211 208 231 211 206 216 219 261 199 222
230 228 223 220 212 209 215 228 238 248 243 218 236 238 248 252 254 259 242 255 263 236 237 234 239 270 255 227 201 203 184 190 188 245 200 193 258 212 202 210 199 168 197 214
228 227 225 219 217 222 219 223 219 223 254 235 240 253 250 255 256 261 261 256 243 250 246 245 248 258 262 259 254 235 216 195 190 245 165 229 246 186 198 213 201 198 181 203
226 226 225 223 225 228 228 233 237 231 253 251 255 245 254 262 261 268 260 252 242 238 241 240 232 234 238 243 236 235 214 216 221 192 228 281 244 205 168 182 236 202 185 190
226 227 228 228 228 230 232 234 238 239 249 247 246 254 257 262 272 272 265 259 244 235 233 236 221 206 203 209 211 206 194 221 214 152 232 223 204 207 206 112 252 207 190 177
225 228 230 231 232 232 235 242 243 240 241 257 244 239 256 253 256 271 277 243 227 217 238 222 232 230 194 216 214 185 195 198 216 215 229 270 240 184 151 178 235 181 198 188
227 230 233 234 235 236 236 250 243 249 253 258 248 248 245 256 245 255 269 250 225 221 227 202 197 201 203 214 228 192 185 184 201 183 226 246 188 112 191 188 159 178 184 178
231 233 236 240 240 243 242 254 257 259 253 251 250 255 256 252 251 251 251 265 233 214 219 198 228 199 146 169 193 209 203 190 173 189 204 208 177 200 203 177 172 178 182 178
238 239 240 242 246 248 247 254 273 270 245 257 256 255 270 272 264 252 245 262 241 245 219 192 205 213 138 182 214 111 228 158 159 131 213 173 188 187 192 188 180 171 169 163
242 244 244 246 247 249 255 254 269 261 257 253 270 267 263 280 280 249 254 241 248 223 227 189 188 219 171 186 185 205 212 144 145 153 151 125 181 186 178 168 157 156 156 159
244 246 248 250 252 252 253 267 261 256 248 282 279 287 281 285 270 253 257 234 233 232 205 200 183 215 133 138 263 196 191 170 180 204 181 157 183 181 171 164 161 159 157 158
245 246 249 251 252 259 263 283 276 253 242 263 279 276 281 291 259 244 257 210 222 231 309 183 150 181 155 149 200 258 188 189 190 171 179 184 177 176 172 165 161 161 162 159
246 248 250 250 246 246 240 247 277 136 224 266 276 270 288 257 240 228 249 248 210 340 216 210 159 151 132 121 190 261 200 191 190 196 177 159 171 172 174 164 161 158 157 159
247 250 247 243 247 253 263 264 251 268 272 248 265 266 304 228 170 211 156 139 136 235 288 198 153 137 117 203 233 310 213 187 184 180 185 183 173 172 166 161 158 153 152 153
248 243 238 244 235 242 260 276 264 259 219 231 258 263 275 200 101 134 101 133 115 302 196 279 124 139 203 168 204 217 199 172 176 169 171 164 159 161 160 160 161 159 156 161
236 219 215 230 215 240 257 259 235 212 218 226 244 238 275 263 60 63 81 62 65 126 246 315 43 248 235 197 200 209 188 130 164 135 130 152 156 160 162 167 170 172 166 162
205 206 223 242 250 269 225 235 210 198 228 217 234 209 216 253 133 136 124 129 155 195 251 134 193 265 216 200 209 200 183 165 177 182 174 179 173 168 170 169 168 165 166 171
193 211 224 249 212 237 250 210 219 221 233 201 220 199 204 185 90 95 4 97 10 196 79 51 272 247 189 183 189 183 191 191 199 203 202 193 180 171 168 169 169 169 168 166
201 216 220 204 203 241 241 223 207 236 216 224 184 175 177 97 86 67 104 96 199 154 108 224 240 296 227 194 185 185 182 179 170 168 169 168 170 172 177 173 168 168 165 158
192 186 217 215 216 230 213 241 265 287 257 269 176 217 166 142 114 150 107 152 179 189 190 217 228 210 199 213 203 189 179 176 176 178 177 175 178 176 171 169 165 164 155 147
186 192 224 217 244 275 292 286 288 279 287 266 144 183 125 95 113 181 129 178 223 213 219 224 201 194 191 192 190 185 174 168 166 166 165 168 165 161 156 158 158 158 151 142
207 231 245 242 264 279 266 286 283 284 280 132 184 148 131 186 133 152 208 179 224 224 206 227 177 180 182 189 182 172 167 164 160 160 162 163 164 162 160 155 153 147 144 143
203 228 233 253 267 262 270 289 302 305 291 175 209 134 177 102 135 201 203 212 216 227 216 214 177 179 175 175 176 184 177 169 166 165 163 160 158 158 157 153 149 145 142 128